DW8485 Weather Reports


time (UTC)temp
C
wind
direction
speed
KPH
gust
KPH
rain 1hr
cm
rain 24hr
cm
rain mn
cm
humidity
%
barometer
mb
20260505184545 27 111 3.2 8.0 0.00 0.00 0.00 52 1016.9
20260505184046 27 131 1.6 8.0 0.00 0.00 0.00 53 1016.9
20260505183545 27 161 4.8 11.3 0.00 0.00 0.00 51 1016.9
20260505183046 27 153 6.4 14.5 0.00 0.00 0.00 51 1016.9
20260505182545 27 149 3.2 11.3 0.00 0.00 0.00 51 1016.9
20260505182046 27 120 3.2 9.7 0.00 0.00 0.00 51 1016.9
20260505181544 27 133 3.2 11.3 0.00 0.00 0.00 51 1016.9
20260505181045 27 168 4.8 12.9 0.00 0.00 0.00 51 1016.9
20260505180545 27 137 3.2 9.7 0.00 0.00 0.00 52 1016.9
20260505180045 27 217 3.2 9.7 0.00 0.00 0.00 53 1017.7
20260505175545 27 138 3.2 12.9 0.00 0.00 0.00 51 1017.7
20260505174544 27 177 3.2 11.3 0.00 0.00 0.00 53 1017.7
20260505174046 27 216 6.4 11.3 0.00 0.00 0.00 51 1017.7
20260505173544 26 145 1.6 4.8 0.00 0.00 0.00 52 1017.7
20260505173046 26 140 3.2 14.5 0.00 0.00 0.00 53 1017.7
20260505172045 26 157 3.2 4.8 0.00 0.00 0.00 52 1017.7
20260505171544 27 173 3.2 8.0 0.00 0.00 0.00 50 1017.7
20260505171046 27 215 8.0 12.9 0.00 0.00 0.00 49 1017.7
20260505170045 27 152 3.2 8.0 0.00 0.00 0.00 51 1017.7
20260505165545 26 140 3.2 4.8 0.00 0.00 0.00 50 1017.7
20260505165045 26 193 1.6 8.0 0.00 0.00 0.00 51 1017.7
20260505164544 26 136 3.2 4.8 0.00 0.00 0.00 52 1017.7
20260505164045 26 178 4.8 8.0 0.00 0.00 0.00 51 1017.7
20260505163544 26 146 3.2 8.0 0.00 0.00 0.00 52 1018.1
20260505163045 26 174 3.2 8.0 0.00 0.00 0.00 53 1018.1
20260505162544 26 205 4.8 8.0 0.00 0.00 0.00 56 1018.1
20260505162045 26 107 1.6 4.8 0.00 0.00 0.00 54 1018.1
20260505161544 26 107 1.6 11.3 0.00 0.00 0.00 54 1018.1
20260505161045 25 176 1.6 4.8 0.00 0.00 0.00 55 1018.1
20260505153045 23 295 3.2 11.3 0.00 0.00 0.00 62 1018.1
20260505152544 23 184 4.8 11.3 0.00 0.00 0.00 63 1018.1
20260505152045 22 171 1.6 3.2 0.00 0.00 0.00 62 1018.0
20260505151545 22 180 3.2 8.0 0.00 0.00 0.00 63 1017.7
20260505151045 22 198 3.2 9.7 0.00 0.00 0.00 65 1017.7
20260505150544 22 165 1.6 4.8 0.00 0.00 0.00 65 1017.7
20260505140544 19 340 3.2 9.7 0.00 0.00 0.00 80 1017.7
20260505124544 15 180 1.6 4.8 0.00 0.00 0.00 95 1017.6
20260505124045 14 132 0.0 0.0 0.00 0.00 0.00 95 1017.6
20260505123545 13 132 0.0 0.0 0.00 0.00 0.00 94 1017.6
20260505123045 13 132 0.0 0.0 0.00 0.00 0.00 94 1017.6
20260505122044 12 132 0.0 0.0 0.00 0.00 0.00 93 1017.6
20260505121543 12 132 0.0 0.0 0.00 0.00 0.00 93 1017.6
20260505120543 11 132 0.0 0.0 0.00 0.00 0.00 92 1017.6
20260505120043 11 132 0.0 0.0 0.00 0.00 0.00 92 1017.6
20260505115544 11 132 0.0 0.0 0.00 0.00 0.00 92 1017.4
20260505113045 11 132 0.0 0.0 0.00 0.00 0.00 90 1017.3
20260505112543 11 132 0.0 0.0 0.00 0.00 0.00 90 1017.1
20260505112045 11 132 0.0 0.0 0.00 0.00 0.00 90 1017.1
20260505111543 11 132 0.0 0.0 0.00 0.00 0.00 89 1017.1
20260505111044 10 132 0.0 0.0 0.00 0.00 0.00 89 1016.4
20260505110543 10 132 0.0 0.0 0.00 0.00 0.00 89 1016.4
20260505102045 11 134 0.0 0.0 0.00 0.00 0.00 88 1016.4
20260505100544 11 134 0.0 0.0 0.00 0.00 0.00 88 1016.4
20260505100044 11 134 0.0 0.0 0.00 0.00 0.00 88 1016.4
20260505095543 11 134 0.0 0.0 0.00 0.00 0.00 88 1016.4
20260505095044 11 134 0.0 0.0 0.00 0.00 0.00 88 1016.0
20260505094543 11 134 0.0 0.0 0.00 0.00 0.00 88 1016.0
20260505093044 11 134 0.0 0.0 0.00 0.00 0.00 88 1016.0
20260505092544 11 134 0.0 0.0 0.00 0.00 0.00 87 1016.0
20260505092044 11 134 0.0 0.0 0.00 0.00 0.00 87 1016.0
20260505091045 11 134 0.0 0.0 0.00 0.00 0.00 87 1016.0
20260505090544 11 134 0.0 0.0 0.00 0.00 0.00 87 1016.0
20260505090042 11 134 0.0 0.0 0.00 0.00 0.00 87 1016.0
20260505085544 11 134 0.0 0.0 0.00 0.00 0.00 87 1016.0
20260505085044 11 134 0.0 0.0 0.00 0.00 0.00 87 1016.0
20260505084544 11 134 0.0 0.0 0.00 0.00 0.00 87 1015.7
20260505084044 11 134 0.0 0.0 0.00 0.00 0.00 87 1015.7
20260505083544 11 134 0.0 0.0 0.00 0.00 0.00 87 1015.7
20260505083044 11 134 0.0 0.0 0.00 0.00 0.00 87 1015.7
20260505082543 12 134 0.0 0.0 0.00 0.00 0.00 87 1015.7
20260505082044 12 134 0.0 0.0 0.00 0.00 0.00 87 1015.7
20260505081543 12 134 0.0 0.0 0.00 0.00 0.00 87 1015.7
20260505081044 12 134 0.0 0.0 0.00 0.00 0.00 87 1015.7
20260505080043 12 134 0.0 0.0 0.00 0.00 0.00 86 1015.8
20260505075544 12 134 0.0 0.0 0.00 0.00 0.00 86 1015.8
20260505075044 12 134 0.0 0.0 0.00 0.00 0.00 86 1015.7
20260505074542 12 134 0.0 0.0 0.00 0.00 0.00 86 1015.7
20260505074044 12 134 0.0 0.0 0.00 0.00 0.00 86 1015.6
20260505073543 12 134 0.0 0.0 0.00 0.00 0.00 86 1015.6
20260505073045 12 134 0.0 0.0 0.00 0.00 0.00 86 1015.6
20260505072543 12 134 0.0 0.0 0.00 0.00 0.00 86 1015.6
20260505072044 12 134 0.0 0.0 0.00 0.00 0.00 86 1015.6
20260505071044 12 134 0.0 0.0 0.00 0.00 0.00 85 1016.4
20260505070544 12 134 0.0 0.0 0.00 0.00 0.00 85 1016.4
20260505070042 12 134 0.0 0.0 0.00 0.00 0.00 85 1016.4
20260505065542 12 134 0.0 0.0 0.00 0.00 0.00 85 1016.4
20260505065044 12 134 0.0 0.0 0.00 0.00 0.00 85 1016.4
20260505064543 12 134 0.0 0.0 0.00 0.00 0.00 85 1016.4
20260505064045 12 134 0.0 0.0 0.00 0.00 0.00 85 1016.4
20260505063044 12 134 0.0 0.0 0.00 0.00 0.00 85 1016.4
20260505062543 12 134 0.0 0.0 0.00 0.00 0.00 85 1016.4
20260505062044 12 134 0.0 0.0 0.00 0.00 0.00 85 1016.4
20260505061543 12 134 0.0 0.0 0.00 0.00 0.00 84 1016.4
20260505061044 12 134 0.0 0.0 0.00 0.00 0.00 84 1016.4
20260505060543 12 134 0.0 0.0 0.00 0.00 0.00 84 1016.4
20260505060042 12 134 0.0 0.0 0.00 0.00 0.00 84 1016.4
20260505055542 12 134 0.0 0.0 0.00 0.00 0.00 84 1016.9
20260505055044 12 134 0.0 0.0 0.00 0.00 0.00 84 1016.9
20260505054542 13 134 0.0 0.0 0.00 0.00 0.00 84 1016.9
20260505054044 13 134 0.0 0.0 0.00 0.00 0.00 84 1016.9
20260505053543 13 134 0.0 0.0 0.00 0.00 0.00 84 1016.9
20260505053043 13 134 0.0 0.0 0.00 0.00 0.00 83 1016.9
20260505052543 13 134 0.0 0.0 0.00 0.00 0.00 83 1016.9
20260505052044 13 134 0.0 0.0 0.00 0.00 0.00 83 1016.9
20260505051543 13 134 0.0 0.0 0.00 0.00 0.00 82 1016.9
20260505051044 13 134 0.0 0.0 0.00 0.00 0.00 82 1016.9
20260505050543 13 134 0.0 0.0 0.00 0.00 0.00 82 1016.9
20260505041542 14 134 0.0 0.0 0.00 0.00 0.00 78 1017.0
20260505040543 15 134 0.0 0.0 0.00 0.00 0.00 77 1017.0
20260505040042 15 134 0.0 0.0 0.00 0.00 0.00 76 1016.9
20260505035543 15 134 0.0 0.0 0.00 0.00 0.00 76 1016.9
20260505034542 15 134 0.0 0.0 0.00 0.00 0.00 75 1016.9
20260505034044 15 134 0.0 0.0 0.00 0.00 0.00 74 1016.9
20260505033043 15 134 0.0 0.0 0.00 0.00 0.00 74 1016.9
20260505032543 15 134 0.0 0.0 0.00 0.00 0.00 73 1016.9
20260505032043 16 134 0.0 0.0 0.00 0.00 0.00 73 1017.0
20260505031542 16 134 0.0 0.0 0.00 0.00 0.00 73 1017.0
20260505031043 16 134 0.0 0.0 0.00 0.00 0.00 72 1016.9
20260505030542 16 134 0.0 0.0 0.00 0.00 0.00 71 1016.9
20260505030043 16 134 0.0 0.0 0.00 0.00 0.00 71 1016.9
20260505025542 16 134 0.0 0.0 0.00 0.00 0.00 70 1016.9
20260505025044 16 134 0.0 0.0 0.00 0.00 0.00 70 1016.9
20260505024542 16 134 0.0 0.0 0.00 0.00 0.00 70 1016.9
20260505024044 17 134 0.0 0.0 0.00 0.00 0.00 69 1016.9
20260505023542 17 134 0.0 0.0 0.00 0.00 0.00 69 1016.9
20260505023043 17 134 0.0 0.0 0.00 0.00 0.00 68 1016.9
20260505022543 17 134 0.0 0.0 0.00 0.00 0.00 67 1016.9
20260505022044 17 134 0.0 0.0 0.00 0.00 0.00 67 1016.9
20260505021543 17 134 0.0 0.0 0.00 0.00 0.00 66 1016.9
20260505021044 17 134 0.0 0.0 0.00 0.00 0.00 66 1016.4
20260505020542 17 134 0.0 0.0 0.00 0.00 0.00 65 1016.4
20260505020042 17 134 0.0 0.0 0.00 0.00 0.00 65 1016.4
20260505015542 17 134 0.0 0.0 0.00 0.00 0.00 64 1016.4
20260505015044 18 134 0.0 1.6 0.00 0.00 0.00 63 1016.4
20260505014542 18 134 0.0 3.2 0.00 0.00 0.00 63 1016.4
20260505014043 18 134 0.0 3.2 0.00 0.00 0.00 62 1016.4
20260505013543 18 134 0.0 3.2 0.00 0.00 0.00 61 1016.4
20260505013043 18 136 0.0 1.6 0.00 0.00 0.00 61 1016.4
20260505012542 18 136 0.0 1.6 0.00 0.00 0.00 60 1016.4
20260505012043 18 136 1.6 1.6 0.00 0.00 0.00 59 1016.4
20260505011542 18 136 0.0 1.6 0.00 0.00 0.00 59 1016.4
20260505010542 19 136 0.0 0.0 0.00 0.00 0.00 57 1016.4
20260505010041 19 136 0.0 1.6 0.00 0.00 0.00 57 1016.4
20260505005542 19 136 0.0 0.0 0.00 0.00 0.00 57 1016.4
20260505005043 20 136 0.0 1.6 0.00 0.00 0.00 56 1016.2
20260505004542 20 136 0.0 1.6 0.00 0.00 0.00 55 1016.2
20260505004043 20 136 0.0 3.2 0.00 0.00 0.00 55 1016.2
20260505003543 20 136 1.6 3.2 0.00 0.00 0.00 55 1016.2
20260505002542 20 200 1.6 4.8 0.00 0.00 0.00 54 1016.2
20260505002042 20 205 3.2 4.8 0.00 0.00 0.00 53 1016.2
20260505001043 20 149 1.6 8.0 0.00 0.00 0.00 52 1016.2
20260505000542 20 121 3.2 9.7 0.00 0.00 0.00 52 1016.2
20260505000042 20 153 0.0 4.8 0.00 0.00 0.00 51 1016.2
20260504235542 21 153 3.2 4.8 0.00 0.00 0.00 50 1016.1
20260504235044 21 158 1.6 8.0 0.00 0.00 0.00 50 1016.1
20260504234043 21 180 1.6 9.7 0.00 0.00 0.00 48 1016.0
20260504233043 21 162 1.6 11.3 0.00 0.00 0.00 48 1016.0
20260504232542 21 202 1.6 9.7 0.00 0.00 0.00 47 1016.0
20260504232043 21 167 3.2 9.7 0.00 0.00 0.00 48 1016.0
20260504231543 21 185 4.8 16.1 0.00 0.00 0.00 48 1016.0
20260504231043 21 170 3.2 11.3 0.00 0.00 0.00 48 1016.0
20260504230542 21 178 4.8 11.3 0.00 0.00 0.00 48 1016.0
20260504230042 22 188 1.6 4.8 0.00 0.00 0.00 50 1016.0
20260504225542 22 201 3.2 9.7 0.00 0.00 0.00 50 1016.0
20260504225043 22 150 3.2 11.3 0.00 0.00 0.00 50 1016.0
20260504224043 22 183 4.8 12.9 0.00 0.00 0.00 49 1016.0
20260504223543 22 144 3.2 9.7 0.00 0.00 0.00 49 1016.0
20260504223043 22 211 3.2 14.5 0.00 0.00 0.00 49 1016.0
20260504222542 22 167 1.6 9.7 0.00 0.00 0.00 50 1016.0
20260504222044 22 198 3.2 9.7 0.00 0.00 0.00 50 1016.0
20260504221542 22 209 3.2 11.3 0.00 0.00 0.00 51 1016.0
20260504221043 22 174 1.6 4.8 0.00 0.00 0.00 51 1016.0
20260504220541 22 196 6.4 11.3 0.00 0.00 0.00 50 1016.0
20260504215542 23 149 3.2 12.9 0.00 0.00 0.00 51 1016.0
20260504215043 23 176 3.2 9.7 0.00 0.00 0.00 51 1016.0
20260504214043 23 162 4.8 11.3 0.00 0.00 0.00 50 1015.9
20260504213542 23 178 6.4 19.3 0.00 0.00 0.00 49 1015.9
20260504213044 23 186 3.2 9.7 0.00 0.00 0.00 49 1015.9
20260504212542 23 158 4.8 9.7 0.00 0.00 0.00 48 1015.9
20260504212043 23 138 4.8 9.7 0.00 0.00 0.00 48 1015.9
20260504211541 24 137 3.2 12.9 0.00 0.00 0.00 46 1015.9
20260504211043 24 208 3.2 12.9 0.00 0.00 0.00 46 1015.9
20260504210542 25 193 6.4 19.3 0.00 0.00 0.00 45 1015.9
20260504210041 25 97 3.2 12.9 0.00 0.00 0.00 44 1015.9
20260504205542 25 163 3.2 19.3 0.00 0.00 0.00 45 1015.9
20260504205043 25 149 8.0 16.1 0.00 0.00 0.00 42 1015.9
20260504204542 26 177 4.8 16.1 0.00 0.00 0.00 43 1015.9
20260504204043 26 140 3.2 9.7 0.00 0.00 0.00 42 1015.9
20260504203542 26 182 4.8 12.9 0.00 0.00 0.00 42 1015.9
20260504203042 26 200 3.2 11.3 0.00 0.00 0.00 42 1016.0
20260504202542 26 177 3.2 16.1 0.00 0.00 0.00 43 1016.0
20260504202043 26 177 3.2 11.3 0.00 0.00 0.00 42 1016.2
20260504201541 26 148 4.8 14.5 0.00 0.00 0.00 43 1016.2
20260504201043 26 131 4.8 16.1 0.00 0.00 0.00 42 1016.2
20260504200542 26 171 4.8 11.3 0.00 0.00 0.00 41 1016.2
20260504200042 26 176 4.8 9.7 0.00 0.00 0.00 43 1016.2
20260504195542 26 212 8.0 16.1 0.00 0.00 0.00 41 1016.2
20260504195043 27 191 3.2 12.9 0.00 0.00 0.00 42 1016.2
20260504194542 27 208 6.4 12.9 0.00 0.00 0.00 40 1016.3
20260504194043 27 144 3.2 11.3 0.00 0.00 0.00 43 1016.3
20260504193542 26 159 3.2 11.3 0.00 0.00 0.00 43 1016.5
20260504193043 27 155 4.8 14.5 0.00 0.00 0.00 43 1016.5
20260504192541 26 134 4.8 11.3 0.00 0.00 0.00 42 1016.5
20260504192043 27 127 1.6 12.9 0.00 0.00 0.00 44 1016.5
20260504191542 27 138 3.2 12.9 0.00 0.00 0.00 43 1016.5